Other Public Products
Issued by NWS Grand Forks, ND

Home | Current Version | Previous Version | Graphics & Text | Print | Product List | Glossary On
Versions: 1 2 3 4 5 6 7 8 9 10 11 12 13 14 15 16 17 18 19 20 21 22 23 24 25 26 27 28 29 30 31 32 33 34 35 36 37 38 39 40 41 42 43 44 45 46 47 48 49 50
000
FPUS83 KFGF 220710
OPUFGF
PRAIRIE TO PINES WEATHER ROUNDUP
NATIONAL WEATHER SERVICE EASTERN NORTH DAKOTA/GRAND FORKS ND
200 AM CDT WED OCT 22 2014

 **SATELLITE DATA USED TO AUGMENT SKY COVER AT AUTOMATED STATIONS**
 *****  WEATHER ACROSS EASTERN NORTH DAKOTA  *****

CITY           SKY/WX    TMP DP  RH WIND       PRES   REMARKS
GRAND FORKS    CLEAR     54  41  61 S20       29.84F
GRAND FORKS AF CLEAR     55  42  63 S22G30    29.82F
GRAND CITY NWS   N/A     52 N/A N/A S20         N/A
BUXTON         NOT AVBL
DEVILS LAKE    PTCLDY    59  43  55 S25       29.69F
FARGO          CLEAR     55  41  59 SE25G36   29.90S
WAHPETON ARPT  SUNNY     52  37  58 SE20      29.95R
$$

 *****  WEATHER ACROSS CENTRAL AND WESTERN NORTH DAKOTA  *****

CITY           SKY/WX    TMP DP  RH WIND       PRES   REMARKS
JAMESTOWN      MOCLDY    60  44  55 S17G24    29.77S
BISMARCK       PTCLDY    65  46  50 S18G28    29.66S
MINOT          FAIR      64  44  48 SW9       29.60R
MINOT AFB      CLEAR     61  49  64 SW10      29.59R
GARRISON         N/A     59  49  69 S5        29.63S
WILLISTON      CLOUDY    59  44  57 SW9       29.65R
DICKINSON      PTCLDY    55  43  63 W12       29.69R
HETTINGER      PTCLDY    55  41  59 NW8       29.73S
$$

 *****  OTHER OBSERVATIONS NORTHEAST NORTH DAKOTA  *****

CITY           SKY/WX    TMP DP  RH WIND       PRES   REMARKS
WALHALLA       FAIR      54  41  62 S17G25    29.75S
LANGDON        FAIR      57  41  54 S26G36    29.73F
CAVALIER       FAIR      54  41  62 S21G26    29.78F
GRAFTON        FAIR      52  41  66 S21G28    29.81F
CANDO          FAIR      57  45  62 S20G25    29.69S
FORT TOTTEN      N/A     60  43  54 S20       29.95
ROLLA          FAIR      55  43  62 S12       29.69S
RUGBY          FAIR      59  41  51 S14G24    29.64R
 ***** THE ABOVE OBSERVATIONS ARE NON NWS ARE NOT QUALITY
        CONTROLLED AND MAY MIS-REPORT RAIN FOR SNOW...
$$

 *****  OTHER OBSERVATIONS SOUTHEAST NORTH DAKOTA *****

CITY           SKY/WX    TMP DP  RH WIND       PRES   REMARKS
COOPERSTOWN    NOT AVBL
VALLEY CITY    FAIR      55  43  62 SE15G21   29.82S
OAKES            N/A     59  45  58 SE18G24   29.83S
GWINNER        SUNNY     52  41  66 SE10      29.87F
SHEYENNE NWR     N/A     54  42  63 SE14      29.95S
BUFFALO        NOT AVBL
WYNDMERE         N/A     55  43  62 SE13        N/A
 ***** THE ABOVE OBSERVATIONS ARE NON NWS ARE NOT QUALITY
       CONTROLLED AND MAY MIS-REPORT RAIN FOR SNOW...
$$

  *****  WEATHER ACROSS NORTHERN MINNESOTA  *****

CITY           SKY/WX    TMP DP  RH WIND       PRES   REMARKS
FLAG ISLAND    CLEAR     46  39  76 SE26      29.94F
WARROAD        CLEAR     50  43  76 S12G22    29.94S
ROSEAU         CLEAR     52  41  66 S15       29.92R
HALLOCK        CLEAR     54  41  62 S24       29.83S
THF RVR FALLS  CLEAR     52  39  62 SE16G23   29.92S
HALSTAD          N/A     55  37  51 S22         N/A
FOSSTON        CLEAR     48  37  66 SE16G25   29.96S
BAUDETTE       CLEAR     44  36  73 SE8       30.00S
WASKISH        CLEAR     46  37  71 SE16G23   30.01S
CROOKSTON      CLEAR     54  43  66 S24G31    29.89S
$$
  *****  WEATHER ACROSS CENTRAL AND WEST MINNESOTA  *****

CITY           SKY/WX    TMP DP  RH WIND       PRES   REMARKS
BEMIDJI        CLEAR     46  38  75 SE15      30.02F
PARK RAPIDS    CLEAR     45  38  76 SE13      30.04F
WADENA         CLEAR     45  37  76 SE12      30.04S
DETROIT LAKES  CLEAR     48  41  76 SE15      29.99S
MOORHEAD       CLEAR     55  43  62 SE21G30   29.92S
FERGUS FALLS   CLEAR     54  37  54 SE20G25   29.99S
ELBOW LAKE     FAIR      51  40  68 SE24G31   29.99S
MORRIS MN      CLEAR     48  41  76 SE16      30.00S
STAPLES        CLEAR     45  37  76 SE10G18   30.07S
WHEATON        CLEAR     50  39  66 SE20      29.97S
$$
  *****  WEATHER ELSEWHERE ACROSS MINNESOTA  *****

CITY           SKY/WX    TMP DP  RH WIND       PRES   REMARKS
DULUTH         CLEAR     41  35  79 S8        30.19R
INTRNTL FALLS  CLEAR     40  35  83 SE10      30.07F
ELY            CLEAR     37  36  93 S6        30.17S
CLOQUET        CLEAR     37  34  87 E3        30.18R
BRAINERD       CLEAR     45  38  76 S12       30.11S
HIBBING        CLEAR     36  33  89 SE7       30.15F
ALEXANDRIA     CLEAR     48  40  73 SE15      30.06R
SAINT CLOUD    CLEAR     48  38  68 SE10      30.12S
MINNEAPOLIS    CLEAR     43  36  76 SE10      30.19R
$$

  *****  WEATHER ACROSS SOUTH DAKOTA  *****

CITY           SKY/WX    TMP DP  RH WIND       PRES   REMARKS
SIOUX FALLS    CLEAR     54  43  66 SE17      30.01S
BROOKINGS      NOT AVBL
WATERTOWN      CLEAR     54  42  64 S16G28    29.94S
HURON          CLEAR     59  39  47 SE18G29   29.88S
SISSETON         N/A     50  42  74 S13       29.92S
ABERDEEN       CLEAR     62  41  46 S22G31    29.83F
MITCHELL       CLEAR     60  39  45 SE20      29.91F
PIERRE         PTCLDY    62  51  67 SE14      29.76F
MOBRIDGE       PTCLDY    65  50  58 S17       29.69S
RAPID CITY     CLOUDY    62  42  47 N5        29.78R
$$

  *****  SOME WEATHER IN NEARBY STATES *****

CITY           SKY/WX    TMP DP  RH WIND       PRES   REMARKS
GLASGOW MT     MOCLDY    50  44  80 W14       29.75R
GREAT FALLS MT MOCLDY    43  35  73 SW15      29.90S
CHEYENNE WY    LGT RAIN  50  41  71 NE3       30.04F
SCOTTSBLUFF NE LGT RAIN  56  50  80 W16G28    29.96R
OMAHA NE       MOCLDY    57  44  62 SE17      30.08R
DES MOINES IA  CLEAR     49  39  68 SE9       30.19R
DAVENPORT IA   CLEAR     37  33  85 E8        30.27R
CHICAGO IL     CLOUDY    47  38  71 NE5       30.26R
EAU CLAIRE WI  CLEAR     40  34  79 SE7       30.25S
LA CROSSE WI   CLEAR     41  35  79 E7        30.26F
$$

  *****  SOME NATIONAL WEATHER *****

CITY           SKY/WX    TMP DP  RH WIND       PRES   REMARKS
LA GUARDIA NY  LGT RAIN  59  55  87 NE23      29.87F
RALEIGH NC     PTCLDY    51  39  63 CALM      29.93S
ATLANTA GA     CLEAR     53  46  77 W5        30.03R
NEW ORLEANS LA PTCLDY    64  57  78 NE6       30.02S
OKLAHOMA CITY  CLEAR     59  56  89 SE6       30.07R
ALBUQUERQUE NM CLOUDY    57  46  66 CALM      30.11S
SALT LAKE CITY PTCLDY    44  36  73 W5        30.09S
LOS ANGELES CA CLEAR     66  62  87 CALM      29.88R
BOISE ID       CLEAR     46  39  76 SE9       30.07R
SEATTLE WA     CLOUDY    58  45  62 SE10      29.75F
$$

*** WEATHER ACROSS MANITOBA...SASKATCHEWAN AND ONTARIO ***
                ***ONTARIO***

CITY           SKY/WX    TMP DP  RH WIND       PRES   REMARKS
GERALDTON      NOT AVBL
THUNDER BAY    CLEAR     28  28 100 CALM      30.29S
SIOUX LOOKOUT  CLEAR     39  34  81 S12       30.09S
TORONTO        CLOUDY    43  34  70 N14       30.19R
BIG TROUT LK   CLEAR     41  34  75 S12G17    29.96S
PICKLE LAKE    NOT AVBL
DRYDEN         CLEAR     39  36  87 S12G20    30.07R
KENORA         NOT AVBL
$$
                *** MANITOBA***

CITY           SKY/WX    TMP DP  RH WIND       PRES   REMARKS
BRANDON        NOT AVBL
DAUPHIN        CLEAR     45  41  87 NE7       29.59F
ISLAND LAKE    PTCLDY    45  37  76 SE9       29.79F
PILOT MOUND      N/A     55  43  62 S23G29      N/A
THE PAS        CLEAR     43  41  93 SE10      29.57S
THOMPSON       CLEAR     43  41  93 S2        29.61F
WINNIPEG       CLEAR     55  41  58 S31G47    29.78S
LYNN LAKE      CLOUDY    39  39 100 NW6       29.57R
CHURCHILL      FOG       37  37 100 E3        29.62S VSB 1/4
GILLAM         CLEAR     45  37  76 S10       29.67F
$$
                ***SASKATCHEWAN***

CITY           SKY/WX    TMP DP  RH WIND       PRES   REMARKS
ESTEVAN        PTCLDY    46  43  87 SW9       29.59R
KINDERSLEY     DRIZZLE   46  45  93 N8        29.68S
LLOYDMINSTER   PTCLDY    45  36  70 NW7       29.69S
PRINCE ALBERT  MOCLDY    54  43  66 N8        29.59R
REGINA         MOCLDY    50  43  76 W10       29.58S



USA.gov is the U.S. government's official web portal to all federal, state and local government web resources and services.